Location: Unspecified
(0.0000°N, 0.0000°E)
Time: 10:26:21
(UTC+00:00)

N. Korean satellite - Pass Details

Date: 25 June 2017
Orbit: 461 x 518 km, 97.2° (Epoch: 26 June)

Event Time Altitude Azimuth Distance (km) Brightness Sun altitude
Rises 19:05:44 0° 188° (S) 2,635 10.1 -14.4°
Reaches altitude 10° 19:08:04 10° 200° (SSW) 1,742 9.3 -14.9°
Maximum altitude 19:11:16 27° 259° (WSW) 1,014 8.8 -15.7°
Drops below altitude 10° 19:14:26 10° 317° (NW) 1,718 10.4 -16.4°
Sets 19:16:44 0° 330° (NNW) 2,591 11.2 -16.9°
